Weather History for Karpathos, Greece

Change the Weather History Date:

Sunday, September 23, 2012

  Actual Average Record
Temperature  
Mean Temperature 74 °F -  
Max Temperature 78 °F - - ()
Min Temperature 71 °F - - ()
Cooling Degree Days 10    
Growing Degree Days 24 (Base 50)    
Moisture  
Dew Point 59 °F    
Average Humidity 57    
Maximum Humidity 69    
Minimum Humidity 47    
Precipitation  
Precipitation 0.00 in - - ()
Sea Level Pressure  
Sea Level Pressure 29.95 in    
Wind  
Wind Speed 23 mph ()    
Max Wind Speed 30 mph    
Max Gust Speed 39 mph    
Visibility 6.2 miles    
Events      
T = Trace of Precipitation, MM = Missing Value Source: Averaged Metar Reports

Daily Weather History Graph

Daily Weather History Graph

Search for Another Location

Airport:

Trip Planner

Search our weather history database for the weather conditions in past years. The results will help you decide how hot, cold, wet, or windy it might be!

Date:

Astronomy

Sep. 23, 2012 Rise Set
Actual Time 7:00 AM EEST 7:06 PM EEST
Civil Twilight 6:34 AM EEST 7:31 PM EEST
Nautical Twilight 6:05 AM EEST 8:01 PM EEST
Astronomical Twilight 5:35 AM EEST 8:31 PM EEST
Moon 2:40 PM EEST (9/23) 12:04 AM EEST (9/23)
Length of Visible Light 12h 56m
Length of Day
12h 06m
First Quarter, 56% of the Moon is Illuminated
Sep 23
First Quarter
Sep 30
Full
Oct 8
Last Quarter
Oct 15
New
Oct 22
First Quarter

Hourly Weather History & Observations

Time (EEST) Temp. Dew Point Humidity Pressure Visibility Wind Dir Wind Speed Gust Speed Precip Events Conditions
7:50 AM 71.6 °F 60.8 °F 69% 29.95 in 6.2 mi WNW 23.0 mph - N/A   Partly Cloudy
8:50 AM 73.4 °F 60.8 °F 65% 29.95 in 6.2 mi WNW 26.5 mph - N/A   Partly Cloudy
9:20 AM 73.4 °F 57.2 °F 57% 29.95 in 6.2 mi WNW 26.5 mph 38.0 mph N/A   Partly Cloudy
9:50 AM 75.2 °F 57.2 °F 53% 29.98 in 6.2 mi WNW 28.8 mph - N/A   Partly Cloudy
10:20 AM 75.2 °F 59.0 °F 57% 29.98 in 6.2 mi WNW 27.6 mph - N/A   Partly Cloudy
10:50 AM 75.2 °F 59.0 °F 57% 29.98 in 6.2 mi WNW 27.6 mph 39.1 mph N/A   Partly Cloudy
11:20 AM 77.0 °F 59.0 °F 54% 29.98 in 6.2 mi WNW 29.9 mph - N/A   Partly Cloudy
11:50 AM 77.0 °F 57.2 °F 50% 29.95 in 6.2 mi NW 27.6 mph 39.1 mph N/A   Partly Cloudy
12:20 PM 77.0 °F 59.0 °F 54% 29.95 in 6.2 mi WNW 28.8 mph - N/A   Partly Cloudy
12:50 PM 77.0 °F 59.0 °F 54% 29.98 in 6.2 mi WNW 28.8 mph - N/A   Partly Cloudy
1:20 PM 78.8 °F 57.2 °F 47% 29.98 in 6.2 mi NW 27.6 mph - N/A   Partly Cloudy
1:50 PM 78.8 °F 59.0 °F 51% 29.95 in 6.2 mi WNW 26.5 mph - N/A   Partly Cloudy
2:20 PM 78.8 °F 59.0 °F 51% 29.98 in 6.2 mi NW 24.2 mph - N/A   Partly Cloudy
2:50 PM 78.8 °F 60.8 °F 54% 29.95 in - NW 25.3 mph - N/A   Clear
3:20 PM 78.8 °F 60.8 °F 54% 29.95 in - WNW 26.5 mph - N/A   Clear
3:50 PM 77.0 °F 59.0 °F 54% 29.92 in - WNW 27.6 mph - N/A   Clear
4:20 PM 78.8 °F 60.8 °F 54% 29.92 in 6.2 mi NW 25.3 mph - N/A   Partly Cloudy
4:50 PM 77.0 °F 59.0 °F 54% 29.92 in 6.2 mi NW 27.6 mph - N/A   Partly Cloudy
5:20 PM 77.0 °F 59.0 °F 54% 29.92 in 6.2 mi WNW 26.5 mph - N/A   Partly Cloudy
5:50 PM 77.0 °F 59.0 °F 54% 29.92 in 6.2 mi WNW 26.5 mph - N/A   Partly Cloudy
6:20 PM 75.2 °F 59.0 °F 57% 29.92 in - NW 23.0 mph - N/A   Clear
6:50 PM 73.4 °F 59.0 °F 61% 29.92 in - WNW 21.9 mph - N/A   Clear
7:20 PM 73.4 °F 59.0 °F 61% 29.92 in 6.2 mi WNW 21.9 mph - N/A   Partly Cloudy
7:50 PM 71.6 °F 59.0 °F 64% 29.92 in 6.2 mi WNW 19.6 mph - N/A   Partly Cloudy
8:20 PM 71.6 °F 60.8 °F 69% 29.92 in 6.2 mi WNW 18.4 mph - N/A   Partly Cloudy
8:50 PM 71.6 °F 60.8 °F 69% 29.92 in 6.2 mi WNW 18.4 mph - N/A   Partly Cloudy